User: anonymous   Login
Location: Seminole
(32.7190°N, 102.6440°W)
Time: 15:08:19
(UTC-05:00)
Language:

Meteor 2-10 - Orbit

View from above orbital plane
View from above orbital plane
View from above satellite
View from above satellite

Ground track
Ground track

The orbit data is extracted from the following two-line orbital elements,

1 14452U 83109A   15148.41852417  .00000083  00000-0  27576-4 0  9990
2 14452 081.1613 114.0666 0091641 039.2779 321.5000 14.26341657641999
Epoch (UTC): 28 May 2015 10:02:40
Eccentricity: 0.0091641
inclination: 81.1613°
perigee height: 738 km
apogee height: 870 km
right ascension of ascending node: 114.0666°
argument of perigee: 39.2779°
revolutions per day: 14.26341657
mean anomaly at epoch: 321.5000°
orbit number at epoch: 64199

The dashed part of the orbit path shows where the satellite is in the earth's shadow,  

DLR